| time (UTC) | temp F | wind direction | speed MPH | gust MPH | rain 1hr in | rain 24hr in | rain mn in | humidity % | barometer mb |
| 20260505222004 | 52 | 354 | 0.0 | 4.0 | 0.00 | 0.00 | 0.00 | 80 | 1011.9 |
| 20260505221004 | 52 | 1 | 1.0 | 2.0 | 0.00 | 0.00 | 0.00 | 80 | 1011.8 |
| 20260505220004 | 52 | 357 | 1.0 | 4.0 | 0.00 | 0.00 | 0.00 | 80 | 1011.7 |
| 20260505215004 | 52 | 352 | 2.0 | 4.0 | 0.00 | 0.00 | 0.00 | 80 | 1012.0 |
| 20260505214005 | 52 | 358 | 1.0 | 2.0 | 0.00 | 0.00 | 0.00 | 79 | 1011.7 |
| 20260505211004 | 52 | 354 | 0.0 | 2.0 | 0.00 | 0.00 | 0.00 | 78 | 1011.8 |
| 20260505210004 | 52 | 349 | 2.0 | 2.0 | 0.00 | 0.00 | 0.00 | 79 | 1011.6 |
| 20260505205004 | 52 | 348 | 1.0 | 2.0 | 0.00 | 0.00 | 0.00 | 80 | 1011.8 |
| 20260505204004 | 52 | 348 | 1.0 | 4.0 | 0.00 | 0.00 | 0.00 | 80 | 1011.8 |
| 20260505203004 | 52 | 352 | 0.0 | 2.0 | 0.00 | 0.00 | 0.00 | 80 | 1011.7 |
| 20260505202004 | 52 | 348 | 1.0 | 4.0 | 0.00 | 0.00 | 0.00 | 80 | 1011.8 |
| 20260505200004 | 52 | 339 | 2.0 | 4.0 | 0.00 | 0.00 | 0.00 | 80 | 1011.4 |
| 20260505195004 | 52 | 341 | 2.0 | 4.0 | 0.00 | 0.00 | 0.00 | 80 | 1011.2 |
| 20260505191005 | 53 | 341 | 2.0 | 4.0 | 0.00 | 0.00 | 0.00 | 79 | 1011.2 |
| 20260505190005 | 53 | 345 | 1.0 | 4.0 | 0.00 | 0.00 | 0.00 | 78 | 1011.0 |
| 20260505185005 | 53 | 347 | 2.0 | 4.0 | 0.00 | 0.00 | 0.00 | 76 | 1010.9 |
| 20260505184005 | 54 | 348 | 1.0 | 4.0 | 0.00 | 0.00 | 0.00 | 73 | 1010.9 |
| 20260505183004 | 54 | 340 | 2.0 | 6.0 | 0.00 | 0.00 | 0.00 | 70 | 1010.7 |
| 20260505182004 | 54 | 341 | 1.0 | 4.0 | 0.00 | 0.00 | 0.00 | 69 | 1010.8 |
| 20260505181005 | 54 | 341 | 2.0 | 4.0 | 0.00 | 0.00 | 0.00 | 68 | 1010.9 |
| 20260505175004 | 55 | 345 | 2.0 | 4.0 | 0.00 | 0.00 | 0.00 | 68 | 1010.8 |
| 20260505174005 | 55 | 355 | 1.0 | 2.0 | 0.00 | 0.00 | 0.00 | 69 | 1010.7 |
| 20260505171005 | 56 | 355 | 1.0 | 2.0 | 0.00 | 0.00 | 0.00 | 70 | 1010.8 |
| 20260505170005 | 56 | 357 | 1.0 | 4.0 | 0.00 | 0.00 | 0.00 | 70 | 1010.5 |
| 20260505165005 | 56 | 349 | 2.0 | 4.0 | 0.00 | 0.00 | 0.00 | 70 | 1010.9 |
| 20260505164005 | 56 | 354 | 2.0 | 4.0 | 0.00 | 0.00 | 0.00 | 71 | 1010.7 |
| 20260505153004 | 56 | 339 | 1.0 | 6.0 | 0.00 | 0.00 | 0.00 | 72 | 1011.1 |
| 20260505152004 | 55 | 346 | 2.0 | 4.0 | 0.00 | 0.00 | 0.00 | 72 | 1011.1 |
| 20260505151005 | 55 | 345 | 2.0 | 6.0 | 0.00 | 0.00 | 0.00 | 74 | 1011.1 |
| 20260505125005 | 58 | 355 | 2.0 | 4.0 | 0.00 | 0.00 | 0.00 | 55 | 1011.3 |
| 20260505124005 | 58 | 346 | 2.0 | 4.0 | 0.00 | 0.00 | 0.00 | 58 | 1011.5 |
| 20260505123005 | 58 | 344 | 2.0 | 7.0 | 0.00 | 0.00 | 0.00 | 60 | 1011.6 |
| 20260505122006 | 58 | 348 | 3.0 | 6.0 | 0.00 | 0.00 | 0.00 | 59 | 1011.5 |
| 20260505121004 | 58 | 344 | 4.0 | 6.0 | 0.00 | 0.00 | 0.00 | 55 | 1011.5 |
| 20260505120005 | 58 | 346 | 2.0 | 6.0 | 0.00 | 0.00 | 0.00 | 60 | 1011.2 |
| 20260505115005 | 59 | 353 | 2.0 | 6.0 | 0.00 | 0.00 | 0.00 | 60 | 1011.5 |
| 20260505114004 | 58 | 359 | 3.0 | 4.0 | 0.00 | 0.00 | 0.00 | 60 | 1011.4 |
| 20260505113006 | 58 | 354 | 2.0 | 4.0 | 0.00 | 0.00 | 0.00 | 59 | 1011.5 |
| 20260505111004 | 58 | 354 | 2.0 | 7.0 | 0.00 | 0.00 | 0.00 | 60 | 1011.5 |
| 20260505102004 | 58 | 2 | 1.0 | 2.0 | 0.00 | 0.00 | 0.00 | 65 | 1012.0 |
| 20260505101004 | 56 | 357 | 0.0 | 4.0 | 0.00 | 0.00 | 0.00 | 66 | 1011.9 |
| 20260505100004 | 56 | 359 | 2.0 | 4.0 | 0.00 | 0.00 | 0.00 | 67 | 1012.1 |
| 20260505095004 | 56 | 6 | 2.0 | 4.0 | 0.00 | 0.00 | 0.00 | 70 | 1012.0 |
| 20260505094005 | 56 | 7 | 1.0 | 2.0 | 0.00 | 0.00 | 0.00 | 70 | 1012.0 |
| 20260505093004 | 55 | 2 | 0.0 | 4.0 | 0.00 | 0.00 | 0.00 | 72 | 1012.2 |
| 20260505092005 | 54 | 6 | 2.0 | 4.0 | 0.00 | 0.00 | 0.00 | 72 | 1012.3 |
| 20260505091004 | 56 | 6 | 0.0 | 2.0 | 0.00 | 0.00 | 0.00 | 74 | 1012.3 |
| 20260505084005 | 54 | 2 | 0.0 | 2.0 | 0.00 | 0.00 | 0.00 | 77 | 1012.2 |
| 20260505083005 | 54 | 2 | 1.0 | 2.0 | 0.00 | 0.00 | 0.00 | 77 | 1012.2 |
| 20260505082005 | 53 | 354 | 1.0 | 4.0 | 0.00 | 0.00 | 0.00 | 77 | 1012.3 |
| 20260505081004 | 52 | 1 | 1.0 | 4.0 | 0.00 | 0.00 | 0.00 | 77 | 1012.3 |
| 20260505080004 | 53 | 352 | 1.0 | 4.0 | 0.00 | 0.00 | 0.00 | 79 | 1012.2 |
| 20260505073005 | 51 | 358 | 2.0 | 4.0 | 0.00 | 0.00 | 0.00 | 81 | 1012.2 |
| 20260505072005 | 51 | 359 | 2.0 | 4.0 | 0.00 | 0.00 | 0.00 | 81 | 1012.3 |
| 20260505071005 | 51 | 9 | 0.0 | 4.0 | 0.00 | 0.00 | 0.00 | 84 | 1012.3 |
| 20260505070005 | 50 | 2 | 2.0 | 2.0 | 0.00 | 0.00 | 0.00 | 85 | 1012.5 |
| 20260505065004 | 49 | 1 | 1.0 | 4.0 | 0.00 | 0.00 | 0.00 | 86 | 1012.6 |
| 20260505064004 | 50 | 4 | 2.0 | 4.0 | 0.00 | 0.00 | 0.00 | 87 | 1012.5 |
| 20260505063005 | 49 | 2 | 2.0 | 2.0 | 0.00 | 0.00 | 0.00 | 89 | 1012.6 |
| 20260505062005 | 49 | 3 | 0.0 | 4.0 | 0.00 | 0.00 | 0.00 | 89 | 1012.8 |
| 20260505061004 | 48 | 3 | 1.0 | 2.0 | 0.00 | 0.00 | 0.00 | 90 | 1012.6 |
| 20260505060005 | 49 | 3 | 0.0 | 2.0 | 0.00 | 0.00 | 0.00 | 90 | 1012.7 |
| 20260505055004 | 48 | 358 | 2.0 | 4.0 | 0.00 | 0.00 | 0.00 | 90 | 1012.9 |
| 20260505054005 | 49 | 6 | 0.0 | 2.0 | 0.00 | 0.00 | 0.00 | 90 | 1012.8 |
| 20260505053005 | 49 | 10 | 0.0 | 2.0 | 0.00 | 0.00 | 0.00 | 90 | 1012.6 |
| 20260505052005 | 49 | 22 | 0.0 | 2.0 | 0.00 | 0.00 | 0.00 | 90 | 1012.6 |
| 20260505051005 | 49 | 0 | 0.0 | 0.0 | 0.00 | 0.00 | 0.00 | 90 | 1012.6 |
| 20260505041005 | 49 | 0 | 0.0 | 0.0 | 0.00 | 0.00 | 0.00 | 89 | 1012.4 |
| 20260505040005 | 49 | 0 | 0.0 | 0.0 | 0.00 | 0.00 | 0.00 | 89 | 1012.5 |
| 20260505035005 | 49 | 1 | 0.0 | 2.0 | 0.00 | 0.00 | 0.00 | 88 | 1012.5 |
| 20260505033004 | 50 | 9 | 0.0 | 2.0 | 0.00 | 0.00 | 0.00 | 88 | 1012.7 |
| 20260505031004 | 50 | 1 | 0.0 | 2.0 | 0.00 | 0.00 | 0.00 | 87 | 1012.8 |
| 20260505030005 | 50 | 9 | 0.0 | 2.0 | 0.00 | 0.00 | 0.00 | 87 | 1013.0 |
| 20260505025005 | 50 | 1 | 0.0 | 2.0 | 0.00 | 0.00 | 0.00 | 87 | 1012.9 |
| 20260505024004 | 50 | 357 | 1.0 | 2.0 | 0.00 | 0.00 | 0.00 | 87 | 1013.0 |
| 20260505022004 | 51 | 356 | 0.0 | 4.0 | 0.00 | 0.00 | 0.00 | 87 | 1013.1 |
| 20260505021004 | 51 | 1 | 2.0 | 2.0 | 0.00 | 0.00 | 0.00 | 87 | 1012.9 |
| 20260505020005 | 51 | 1 | 1.0 | 4.0 | 0.00 | 0.00 | 0.00 | 87 | 1013.0 |
| 20260505015005 | 51 | 357 | 1.0 | 4.0 | 0.00 | 0.00 | 0.00 | 87 | 1013.0 |
| 20260505014004 | 51 | 354 | 2.0 | 4.0 | 0.00 | 0.00 | 0.00 | 87 | 1013.2 |
| 20260505012004 | 51 | 353 | 2.0 | 4.0 | 0.00 | 0.00 | 0.00 | 87 | 1013.4 |
| 20260505011005 | 51 | 1 | 3.0 | 4.0 | 0.00 | 0.00 | 0.00 | 87 | 1013.6 |
| 20260505010005 | 51 | 359 | 2.0 | 4.0 | 0.00 | 0.00 | 0.00 | 87 | 1013.5 |
| 20260505004004 | 52 | 1 | 1.0 | 2.0 | 0.00 | 0.00 | 0.00 | 87 | 1013.5 |
| 20260505003005 | 52 | 350 | 1.0 | 4.0 | 0.00 | 0.00 | 0.00 | 87 | 1013.6 |
| 20260505002005 | 52 | 1 | 1.0 | 4.0 | 0.00 | 0.00 | 0.00 | 87 | 1013.7 |
| 20260505001004 | 52 | 356 | 2.0 | 2.0 | 0.00 | 0.00 | 0.00 | 87 | 1013.7 |
| 20260505000005 | 52 | 353 | 2.0 | 4.0 | 0.00 | 0.00 | 0.00 | 88 | 1013.6 |
| 20260504235005 | 52 | 346 | 2.0 | 4.0 | 0.00 | 0.00 | 0.00 | 88 | 1013.9 |
| 20260504234005 | 52 | 358 | 2.0 | 4.0 | 0.00 | 0.00 | 0.00 | 88 | 1013.8 |
| 20260504233005 | 52 | 351 | 2.0 | 4.0 | 0.00 | 0.00 | 0.00 | 88 | 1013.9 |
| 20260504232004 | 52 | 356 | 2.0 | 4.0 | 0.00 | 0.00 | 0.00 | 88 | 1014.1 |
| 20260504231004 | 52 | 349 | 2.0 | 4.0 | 0.00 | 0.00 | 0.00 | 88 | 1014.0 |
| 20260504230009 | 52 | 1 | 2.0 | 4.0 | 0.00 | 0.00 | 0.00 | 88 | 1013.9 |
| 20260504225005 | 52 | 1 | 2.0 | 4.0 | 0.00 | 0.00 | 0.00 | 88 | 1013.7 |
| 20260504223005 | 52 | 2 | 3.0 | 4.0 | 0.00 | 0.00 | 0.00 | 88 | 1013.6 |